Location: Blandford
(50.8667°N, 2.1667°W)
Time: 08:47:21
(UTC+00:00)

Cosmos 540 Rocket - Pass Details

Date: 09 April 2020
Orbit: 741 x 753 km, 74.1° (Epoch: 22 May)

Event Time Altitude Azimuth Distance (km) Brightness Sun altitude
Rises 21:25:33 0° 335° (NNW) 3,215 8.0 -21.3°
Reaches altitude 10° 21:27:56 10° 337° (NNW) 2,285 6.9 -21.5°
Maximum altitude 21:33:08 84° 66° (ENE) 761 3.4 -22.1°
Enters shadow 21:34:18 55° 148° (SSE) 900 3.4 -22.2°
